Wind_Speed
13 14 15 16 18 19 20 20 21 21 22 23 23 24 24 24 24 23 23 24 24 24 25 25 26 27 28 29 31 32 33 34 34 35 35 36 36 37 38 38 38 38 37 37 37 37 38 38 38 38 35 35 35 34 34 34 35 34 31 30 28 27 26 22 15 11 13 17 18 19 22 24 25 26 26 26 27 28 29 29 29 30 31 32 33
10 12 13 15 17 17 17 18 18 19 20 21 22 23 22 22 22 22 23 24 23 24 25 26 26 27 28 30 31 33 34 35 35 35 36 37 37 37 38 38 39 38 37 37 38 37 37 38 38 38 36 36 35 34 34 34 34 34 33 30 29 28 27 25 20 14 13 17 19 19 21 24 26 26 27 28 28 28 29 29 28 29 30 31 32
6 9 11 12 14 15 15 16 16 17 19 20 21 21 21 21 21 21 23 23 23 24 25 26 27 27 29 30 32 33 34 35 36 36 36 37 38 39 39 39 39 39 38 38 38 36 36 37 37 37 36 36 36 35 34 34 34 34 34 33 32 32 32 31 27 21 17 17 21 22 22 24 27 27 28 28 28 27 27 27 27 28 28 28 30
4 7 9 11 11 13 13 14 15 16 18 19 20 20 20 20 20 21 22 22 23 24 25 26 27 28 29 31 32 33 35 35 35 35 36 37 38 39 39 40 40 40 39 39 37 36 36 37 37 36 35 36 36 35 35 34 34 34 35 34 34 35 35 35 33 29 23 19 21 25 27 27 27 27 26 27 27 25 25 26 26 27 27 27 29
3 4 7 9 9 11 12 13 14 15 16 17 18 18 18 18 19 20 21 22 23 24 25 26 27 28 30 31 32 33 34 34 34 34 36 37 38 38 38 38 39 39 39 39 37 36 36 37 37 35 34 35 35 35 35 35 34 34 34 33 34 35 35 34 35 34 30 24 20 21 24 25 25 25 26 26 25 24 24 25 26 25 26 27 28
4 3 4 6 7 7 8 10 12 13 14 15 16 16 17 18 19 20 21 22 23 24 24 25 26 28 29 30 31 33 33 33 33 34 35 36 37 38 37 37 38 38 39 38 38 37 37 37 36 35 34 35 35 34 34 35 35 35 34 34 34 35 34 33 33 33 32 28 23 20 22 24 24 24 25 26 26 24 23 23 24 25 26 26 28
5 4 3 3 4 4 4 6 8 9 11 12 13 15 16 17 18 19 20 21 22 23 23 24 25 26 28 29 31 33 33 34 34 35 35 36 36 37 37 37 37 37 37 37 37 37 37 37 36 36 36 37 36 36 35 35 35 35 36 36 35 34 33 32 32 32 30 28 25 23 23 24 22 21 22 23 22 22 22 22 23 26 27 28 29
6 5 5 4 4 4 4 4 5 6 9 10 12 13 15 16 17 17 18 19 20 21 22 24 25 26 28 30 31 32 33 34 35 36 36 36 36 36 36 36 36 36 36 36 36 37 37 38 38 38 38 39 39 38 37 36 35 35 36 36 36 35 32 32 32 31 30 27 24 22 21 20 20 18 18 19 19 21 26 26 25 27 29 29 30
5 5 5 4 4 4 4 4 4 5 6 8 9 11 12 13 14 15 17 18 20 21 22 23 24 26 28 29 30 31 31 33 34 34 34 33 34 34 34 34 34 34 35 35 35 36 37 37 38 39 39 40 41 41 41 40 38 37 36 36 36 34 33 32 31 30 27 24 21 19 17 18 21 20 20 23 26 25 27 28 26 26 26 27 28
5 5 5 5 5 5 4 4 4 4 5 6 7 8 9 11 12 13 15 17 18 20 22 23 24 26 28 29 31 32 32 33 33 33 33 33 32 32 32 32 32 33 33 34 34 35 35 36 36 37 38 39 40 41 42 42 42 41 39 38 36 35 34 32 31 30 26 22 21 20 16 16 23 28 27 31 31 25 24 27 26 22 19 18 20
5 5 6 6 6 6 6 6 6 5 6 6 7 8 9 11 12 14 15 16 17 18 20 22 24 25 27 29 31 32 33 34 33 34 35 35 35 35 34 34 33 33 33 33 34 34 34 35 36 36 38 40 41 41 42 42 43 43 43 41 39 39 38 35 32 30 27 23 23 23 20 19 25 31 31 30 28 25 25 28 26 21 19 15 11
5 6 6 7 7 7 8 8 9 9 9 9 10 10 11 12 13 15 16 17 17 18 20 21 22 23 25 28 29 31 32 32 31 32 33 34 35 36 37 37 36 36 36 36 36 36 36 37 38 40 41 42 43 42 43 43 43 43 44 44 44 44 43 40 37 33 30 27 25 25 26 24 24 30 32 30 29 29 27 26 26 25 23 20 15
6 6 7 8 8 9 10 10 11 11 12 12 13 13 14 15 16 17 18 18 19 20 21 22 23 23 23 26 28 30 31 30 30 31 31 32 33 34 36 37 37 37 37 36 36 36 36 36 37 40 42 42 42 42 42 42 42 43 44 45 46 46 45 45 43 40 37 35 31 29 31 30 27 30 34 33 31 30 27 26 28 28 25 24 25
8 8 9 10 10 11 11 12 13 14 15 15 15 15 16 17 18 19 20 21 21 23 24 24 25 24 24 26 28 29 30 29 28 29 29 31 31 32 34 36 37 38 38 37 36 36 35 35 37 39 40 40 40 41 40 41 41 42 43 44 45 46 45 45 44 42 40 38 35 33 34 34 33 32 33 33 32 31 31 31 32 31 30 26 24
11 11 11 12 12 13 14 14 15 16 17 17 18 18 18 19 20 20 21 21 22 24 25 25 27 27 27 27 28 31 31 28 28 28 27 28 29 30 32 34 36 37 38 37 37 37 37 36 38 39 38 38 38 39 39 40 40 40 40 40 42 43 43 44 43 42 43 41 39 37 35 34 34 32 32 32 33 32 32 33 32 30 28 22 16
11 11 12 13 15 16 16 16 17 18 19 20 20 21 21 21 21 22 22 23 23 24 25 26 27 28 29 28 30 33 33 29 28 28 26 25 26 28 31 33 35 37 37 36 37 39 39 38 39 39 38 38 38 38 38 38 39 39 38 38 40 41 42 41 40 42 44 43 41 39 35 34 33 31 31 31 31 32 30 26 24 24 21 15 12
10 11 12 13 15 16 16 16 18 19 20 21 23 23 23 23 23 23 23 24 25 26 27 28 28 29 30 30 30 34 36 31 28 28 26 24 23 26 29 31 33 35 35 35 37 38 39 39 39 39 38 39 39 38 36 36 38 39 37 37 38 38 38 37 36 38 40 39 38 36 34 33 31 29 30 29 30 33 30 23 22 25 20 12 10
11 12 13 14 14 15 15 15 16 18 19 20 22 23 24 24 23 22 23 24 26 27 27 29 31 30 31 32 31 34 38 34 29 27 26 23 22 24 27 29 32 33 33 35 37 38 39 40 39 40 41 41 40 37 35 35 36 37 35 34 34 34 34 34 34 34 34 33 34 34 32 31 29 27 28 29 30 33 33 30 30 30 24 15 11
11 12 13 14 14 15 15 15 16 17 18 19 20 21 22 23 23 22 22 23 25 26 26 28 31 32 32 32 32 33 37 37 31 28 26 23 22 23 25 28 31 31 31 34 37 37 38 39 39 41 43 43 41 38 36 36 36 37 36 33 31 31 34 34 33 33 32 32 32 33 32 32 30 29 29 29 31 33 35 34 34 33 28 21 17
11 11 13 14 15 16 17 17 17 17 18 19 20 20 21 21 21 22 22 23 24 26 26 26 30 33 33 33 34 33 34 35 33 29 26 24 22 22 24 27 30 30 31 33 35 35 35 36 37 40 42 42 41 39 37 36 37 38 37 34 31 32 34 35 34 33 33 33 34 34 35 34 32 31 29 29 30 32 33 34 34 34 31 26 24
11 12 13 15 17 18 18 18 19 19 19 20 20 20 20 20 21 21 22 23 24 26 27 26 29 34 34 33 34 34 33 33 32 29 26 24 22 21 24 27 29 30 32 34 34 34 33 33 34 35 36 37 38 37 36 36 36 37 37 36 35 35 34 34 35 33 32 34 35 34 33 32 31 30 30 30 31 31 33 34 33 33 32 29 27
12 12 14 17 19 20 20 21 21 21 21 21 21 22 21 21 21 21 21 22 23 25 26 26 28 32 35 35 35 35 33 32 30 28 26 24 22 21 23 27 28 29 32 35 34 33 33 33 33 33 33 33 33 34 35 35 35 36 38 38 38 36 34 34 33 31 32 33 32 29 29 29 30 30 29 30 31 31 33 34 32 30 31 30 28
12 13 15 18 20 21 22 23 23 22 22 22 22 23 24 23 22 21 21 21 23 24 24 23 24 29 33 35 35 34 33 31 29 27 26 24 23 22 22 24 26 27 31 36 35 33 33 33 33 33 33 32 31 30 31 33 36 37 38 39 38 36 33 31 29 29 30 30 28 27 28 29 30 30 30 31 32 32 33 32 31 30 29 27 26
14 15 16 18 20 22 22 23 22 22 22 22 23 24 25 25 24 23 21 21 22 24 25 23 22 25 29 33 35 35 32 30 28 27 26 25 24 23 23 23 24 26 30 36 36 34 35 35 34 32 32 32 31 29 29 31 34 36 36 35 35 34 31 30 29 28 28 27 27 27 29 30 31 31 32 34 33 32 33 31 29 28 27 25 23
15 16 16 18 20 22 22 22 21 21 21 21 22 23 24 25 26 25 23 21 21 23 25 24 23 23 25 29 34 37 34 31 30 29 27 26 25 24 23 23 23 24 29 34 35 35 36 36 36 35 32 31 29 29 30 30 31 34 35 34 33 33 32 31 30 28 28 27 27 27 28 31 33 33 33 33 33 32 32 31 28 26 26 24 21
16 17 17 19 21 21 21 21 21 21 20 20 20 21 22 24 26 26 24 21 21 23 25 25 23 22 23 27 31 35 36 33 31 30 28 26 25 23 22 22 22 23 27 31 33 35 36 36 36 36 35 32 29 29 31 30 29 31 34 35 33 33 33 31 29 28 28 27 27 28 28 29 31 31 31 32 33 33 33 32 29 27 26 25 22
17 18 18 20 21 21 20 21 21 21 21 21 21 22 22 22 25 27 25 23 23 24 24 25 24 21 23 27 30 32 35 33 30 30 28 25 22 21 21 21 22 23 25 28 31 33 34 35 34 34 34 34 31 30 31 31 29 30 33 35 35 34 34 33 32 31 30 29 30 30 28 26 26 28 30 31 32 33 34 34 32 29 28 26 23
17 17 18 19 20 20 20 21 22 23 23 22 22 23 23 23 24 27 27 24 24 26 26 26 26 24 25 28 28 29 33 33 29 27 25 21 20 22 22 23 24 24 26 28 30 32 32 32 31 30 29 29 29 29 31 32 32 32 33 34 34 34 33 32 32 33 31 28 27 26 25 24 25 27 28 29 30 32 34 34 32 31 30 27 23
17 17 18 19 20 21 22 22 23 24 24 24 24 24 24 24 24 28 29 25 24 26 28 29 30 28 28 30 27 25 31 35 31 27 25 25 25 27 27 27 27 27 27 28 29 30 29 27 25 24 23 23 24 25 27 28 29 30 32 33 32 32 31 31 31 31 29 26 24 23 24 25 26 27 27 27 28 31 33 33 32 31 29 27 24
18 18 19 20 22 24 26 26 26 26 25 26 27 28 28 26 24 26 29 28 25 25 28 31 32 29 30 34 32 29 34 40 38 34 34 34 33 32 31 29 28 28 27 26 27 28 26 23 22 22 21 21 22 22 22 23 23 25 27 29 30 30 30 31 31 29 28 27 26 25 26 27 27 28 29 28 28 30 31 31 31 31 29 26 24
19 19 19 21 23 24 26 27 26 26 26 25 26 28 30 31 28 26 26 27 26 25 25 28 31 29 30 35 37 36 38 40 40 38 37 36 34 32 31 29 27 26 24 24 25 26 23 21 22 21 21 22 22 22 21 21 23 23 23 24 27 29 30 31 30 29 28 27 26 25 27 29 29 30 31 29 29 30 31 30 31 31 27 25 25
20 21 20 22 24 24 24 25 25 25 25 24 24 23 25 29 32 31 28 25 24 25 26 28 31 30 29 31 34 37 38 38 37 37 37 35 33 33 32 30 27 25 22 22 25 26 22 21 22 21 20 21 23 23 23 23 24 24 23 23 25 27 29 30 29 29 29 27 26 27 29 30 29 29 30 30 30 30 29 30 31 30 26 23 24
20 21 22 24 25 25 24 24 24 23 23 23 23 22 21 21 25 31 34 33 31 30 30 29 28 28 28 28 29 34 36 36 35 36 36 35 33 31 31 31 29 25 22 22 25 25 22 22 23 22 21 22 22 22 23 24 24 24 25 25 25 26 28 28 28 29 30 30 29 29 29 30 29 28 28 30 31 30 30 31 32 30 26 23 23
20 22 24 24 26 26 25 24 23 23 23 23 23 23 23 22 22 26 30 32 33 34 34 31 26 25 27 28 28 30 33 34 34 34 34 34 32 29 30 31 28 25 25 26 26 25 23 23 24 23 22 23 23 23 23 24 24 24 25 25 25 25 25 26 27 29 29 29 29 29 29 29 29 29 28 28 29 28 28 32 34 32 28 25 24
23 25 25 24 25 26 25 24 24 23 23 24 24 24 25 26 25 25 25 25 26 30 35 37 31 26 28 31 31 31 32 33 34 33 32 31 29 27 26 27 24 22 23 26 27 27 25 25 25 24 23 24 24 24 24 24 24 25 25 25 25 25 25 26 28 28 28 29 29 29 29 29 29 30 29 29 30 28 28 33 36 33 28 25 25
24 25 24 23 24 26 26 25 24 24 25 26 26 27 28 27 26 26 26 26 26 27 33 39 39 34 32 32 31 30 30 30 30 31 30 28 26 24 24 24 22 20 21 23 25 27 28 27 27 26 25 25 25 25 25 25 25 26 27 27 27 27 27 28 29 29 29 29 29 29 29 29 29 30 29 29 30 30 31 35 36 31 26 25 25
23 23 23 23 24 25 26 26 26 26 27 28 28 28 28 28 27 26 25 26 26 26 30 36 37 36 35 31 24 22 25 27 27 28 28 26 24 24 26 25 23 22 23 23 23 25 27 27 27 27 27 27 26 26 26 26 27 27 28 28 28 28 28 29 30 30 30 30 29 29 30 30 31 32 31 29 28 28 30 34 33 28 26 27 25
23 23 23 24 25 26 27 27 27 27 28 28 27 27 27 27 26 25 25 26 26 26 28 30 31 31 33 31 25 22 24 26 25 25 25 25 24 25 27 27 26 25 26 25 24 25 26 27 27 27 27 28 27 27 27 27 27 27 27 28 28 29 28 28 29 30 30 30 29 29 30 30 30 32 33 30 29 29 30 31 30 27 28 28 27
24 24 24 24 25 26 26 27 27 26 25 25 25 24 25 25 24 23 23 24 25 26 27 28 28 30 32 32 29 25 24 23 22 22 22 23 23 24 25 26 27 27 27 27 25 25 27 28 27 27 28 28 28 28 28 28 28 27 27 27 27 27 27 27 27 28 29 30 29 29 29 29 29 31 32 31 30 31 32 31 30 30 30 28 27
22 23 23 23 23 24 24 25 25 24 23 23 23 22 23 24 23 22 22 23 24 25 25 26 29 32 32 30 29 26 24 24 24 23 22 22 22 22 24 25 26 26 27 27 26 26 27 28 28 28 28 29 29 29 30 30 29 28 28 28 27 27 28 28 29 29 30 31 30 30 31 31 30 30 31 30 30 33 33 31 30 31 31 29 29
21 21 21 20 21 22 23 23 23 23 24 24 24 23 24 24 23 22 22 22 23 24 25 26 30 34 33 31 30 28 27 27 28 26 25 25 24 24 25 26 26 27 27 27 26 26 27 28 29 29 29 29 29 30 30 31 30 29 28 28 28 28 28 29 31 31 31 31 31 31 31 32 32 32 31 31 31 32 32 30 29 30 30 30 30
21 21 21 21 21 22 23 23 24 25 26 26 26 26 26 26 25 24 25 25 24 24 25 27 31 33 33 32 31 29 29 30 30 29 28 28 27 27 27 27 27 28 28 28 27 27 27 29 30 29 29 30 30 30 30 30 30 29 29 28 28 28 29 30 31 32 31 31 31 31 31 32 34 33 32 32 32 32 32 31 31 31 31 31 32
24 24 25 25 24 24 24 24 25 25 25 25 26 27 27 27 27 26 26 26 25 24 24 25 28 31 33 33 31 29 29 29 30 29 29 29 28 28 28 28 28 28 29 29 28 28 29 30 31 31 31 31 31 31 31 31 30 30 30 29 29 29 30 30 30 31 31 30 30 31 32 33 33 33 32 32 32 32 32 32 32 31 31 31 32
26 26 26 25 25 25 25 24 24 24 24 24 25 26 25 24 25 25 25 25 26 25 25 25 27 29 30 30 29 27 27 27 28 28 28 28 28 28 29 28 28 28 28 29 28 28 30 31 32 32 32 32 32 32 33 33 32 32 32 31 30 30 31 31 30 31 32 31 31 32 33 33 33 32 32 33 33 32 32 32 32 31 31 31 31
24 24 23 23 22 21 21 21 22 23 24 23 23 24 23 23 23 23 23 24 24 25 25 26 27 28 27 27 26 25 25 25 26 26 26 27 28 28 29 28 28 28 28 29 29 29 30 31 32 32 32 32 32 32 33 33 34 34 34 34 33 32 33 33 33 33 34 34 33 33 33 33 33 33 33 34 35 34 32 33 33 32 32 32 31
20 20 20 20 20 19 19 19 19 20 21 21 21 22 21 22 22 22 23 23 23 24 25 26 26 26 26 26 25 24 24 24 24 25 26 27 28 28 29 28 28 29 29 29 29 29 30 31 31 32 32 32 31 32 32 33 34 35 35 35 35 34 34 34 33 33 33 33 33 32 32 32 33 33 32 33 34 33 32 33 33 32 32 31 30
19 19 19 19 20 20 20 20 20 21 21 21 21 21 21 21 22 22 23 24 24 24 25 25 25 25 25 25 26 25 25 26 26 26 27 28 28 28 28 28 28 29 29 29 29 28 29 30 31 31 32 32 32 32 32 33 33 34 34 34 34 33 32 32 31 32 33 33 33 33 33 32 31 30 31 32 31 31 32 32 32 32 32 31 31
20 20 19 19 19 19 19 19 20 20 20 20 21 21 21 21 21 21 22 23 24 24 24 24 24 24 24 24 26 26 26 26 27 27 27 27 27 27 27 27 27 27 27 27 27 28 28 29 30 31 31 32 31 31 31 32 32 33 33 33 33 33 32 31 31 31 32 33 33 33 33 33 31 31 31 32 31 31 32 32 32 32 32 31 31
21 20 19 19 19 19 20 20 20 20 20 20 20 20 20 21 22 23 24 26 26 26 25 24 24 23 23 23 24 25 25 24 24 24 24 24 24 24 25 25 26 26 26 26 27 27 27 28 28 29 29 29 29 29 29 30 30 31 31 31 31 31 31 30 30 31 32 32 33 33 33 32 32 32 32 32 31 31 32 32 32 32 32 31 31
20 19 19 19 19 20 20 20 19 20 19 19 19 19 19 20 20 21 22 22 21 21 21 21 21 21 21 21 22 22 21 21 22 23 24 25 26 26 26 25 25 24 25 25 25 25 25 25 25 25 26 26 27 27 27 27 28 28 28 28 28 28 28 27 28 29 30 31 32 33 33 33 33 32 32 31 31 31 31 31 31 31 31 31 31
17 16 16 17 17 17 17 17 17 18 18 18 18 19 19 19 19 19 20 20 20 21 21 22 22 22 22 22 22 22 22 23 24 25 26 27 28 28 27 25 24 23 22 22 22 21 21 20 20 21 22 23 24 24 25 25 25 25 25 24 24 23 23 24 25 27 29 30 31 32 33 33 34 33 32 32 32 31 31 31 31 30 30 30 30
Wind_Direction
257 249 244 241 242 242 241 239 237 236 235 235 235 237 237 236 236 237 238 237 235 235 236 237 237 237 236 235 234 234 235 235 233 231 230 231 231 232 233 234 235 236 238 238 239 240 241 242 241 240 238 239 239 238 237 237 239 239 240 239 236 235 234 234 244 256 246 239 238 235 232 230 230 234 237 241 244 244 243 243 242 241 242 243 243
258 252 247 243 241 242 242 240 237 235 233 233 235 237 237 236 236 236 236 237 235 235 236 237 237 237 236 237 237 236 236 236 235 232 230 231 231 232 233 234 235 236 237 238 238 238 239 241 242 241 240 240 240 239 238 236 236 236 236 236 236 235 235 236 243 252 250 240 233 229 225 224 229 236 238 240 243 244 241 239 239 239 240 240 241
256 245 242 241 238 237 237 236 234 231 231 232 234 235 236 237 236 235 236 236 235 236 237 237 237 237 237 237 238 239 238 236 235 233 232 232 232 233 233 234 235 235 236 238 238 238 239 240 242 241 239 239 240 239 238 236 234 234 235 234 235 237 237 237 240 244 248 242 232 228 227 226 230 235 236 238 241 241 239 239 239 239 238 237 238
261 236 232 233 231 229 230 230 230 231 232 233 235 236 237 238 237 237 238 238 237 237 238 237 237 236 237 238 239 239 239 238 236 235 235 236 236 236 236 236 236 237 238 239 239 239 239 240 241 241 238 238 239 238 238 236 234 234 234 233 233 236 237 236 236 238 244 246 237 232 231 229 227 229 230 232 234 235 235 237 239 239 237 234 235
289 250 238 238 235 232 230 228 229 231 234 235 237 239 240 240 240 240 240 240 240 240 239 238 237 237 238 239 240 241 241 240 239 239 239 239 239 240 239 239 239 240 241 241 241 240 240 240 241 240 238 237 237 237 236 235 234 233 233 232 232 235 236 234 234 235 239 242 236 226 224 223 222 225 228 227 226 227 229 232 235 235 233 232 232
327 299 266 256 252 248 242 238 238 238 239 240 241 243 244 245 245 245 245 246 246 245 244 242 242 243 243 244 244 244 244 244 244 244 243 242 242 242 242 243 242 242 243 243 242 242 241 242 242 240 238 237 237 237 236 234 233 233 233 234 235 236 235 233 233 234 235 237 236 228 222 221 219 220 224 224 222 222 221 224 229 230 230 229 229
5 359 347 321 298 292 280 263 256 254 253 251 251 251 251 251 252 252 252 253 254 253 252 251 252 251 251 251 250 249 248 247 247 246 245 244 244 244 244 244 245 245 245 245 244 244 243 243 243 241 239 239 238 238 237 236 235 234 234 235 236 235 234 233 232 231 233 236 237 233 226 220 216 217 220 219 219 221 218 215 220 224 226 227 227
13 15 12 9 1 352 342 317 288 271 264 261 259 257 255 255 256 256 256 256 258 259 260 261 261 259 258 257 256 255 253 251 249 247 246 246 245 246 246 246 246 246 247 247 246 246 245 244 243 242 241 241 241 241 240 239 237 236 236 236 235 234 233 233 232 230 232 234 233 228 218 208 206 209 209 201 202 217 220 217 218 222 223 225 226
11 14 12 13 11 5 355 341 320 298 286 280 277 273 270 269 266 264 262 261 261 262 262 263 263 262 262 261 260 260 258 255 253 250 249 249 248 248 248 248 249 249 249 250 249 247 246 245 244 243 242 243 244 244 244 242 239 237 238 236 234 233 233 233 230 228 229 231 230 220 205 199 199 194 190 195 205 218 220 216 219 225 223 222 224
19 15 9 9 7 2 357 347 334 320 308 301 298 295 290 286 281 276 272 268 266 265 264 263 263 263 264 264 263 261 259 257 255 253 252 252 252 252 252 251 251 251 252 252 250 248 247 246 245 245 245 246 247 246 246 245 242 242 242 239 236 234 233 231 229 227 225 225 224 212 196 197 201 198 201 210 214 217 216 211 214 218 214 216 226
31 25 17 16 12 3 0 354 347 342 329 318 311 304 299 294 290 287 284 281 279 276 273 270 269 268 267 267 265 263 261 259 257 255 254 252 252 253 255 255 255 254 254 254 253 252 250 249 250 250 251 251 250 249 249 247 246 246 246 244 241 239 236 232 230 227 223 224 224 214 204 207 209 207 210 215 213 214 216 212 207 202 197 201 220
32 34 29 25 20 11 5 357 351 348 342 335 328 319 312 306 302 299 297 296 294 289 284 281 279 277 274 272 270 269 268 266 263 260 257 256 255 254 255 257 256 255 254 254 254 254 252 251 251 251 251 251 250 250 250 250 248 248 249 248 246 244 241 240 238 233 226 225 224 217 214 216 213 210 212 214 214 214 215 212 207 203 201 204 208
34 36 33 28 24 17 9 359 353 349 345 341 335 329 323 317 315 313 310 308 305 298 295 292 288 285 281 278 277 276 275 273 270 265 260 257 256 256 256 256 256 255 255 254 254 253 252 251 250 250 250 250 250 249 248 249 249 249 249 248 247 245 243 244 245 242 237 232 226 222 221 218 214 216 221 221 215 208 205 208 211 208 207 212 217
37 33 32 29 25 16 8 360 353 350 347 344 340 335 330 326 324 322 317 314 309 304 302 299 295 292 288 286 285 283 281 279 276 270 263 258 255 256 256 256 256 257 256 256 256 256 255 253 251 251 250 249 248 248 247 248 248 247 247 247 247 245 244 244 244 243 241 238 232 230 230 225 223 229 234 228 218 211 207 210 213 211 210 215 221
37 30 28 23 16 9 4 359 354 351 348 345 342 339 335 332 330 327 322 317 312 308 306 302 299 297 294 292 289 287 285 285 283 278 269 260 255 255 256 256 256 257 257 257 258 258 257 256 255 255 254 252 250 249 249 248 247 246 247 248 248 248 247 247 246 245 243 241 238 238 237 235 235 240 240 233 227 225 222 222 221 214 208 208 212
39 29 21 14 8 4 2 358 355 352 349 345 343 340 338 334 332 330 325 320 315 311 308 305 303 301 299 296 292 290 290 290 290 287 280 269 259 253 254 256 256 256 257 256 257 258 258 257 257 256 256 256 255 252 252 252 250 247 247 249 250 249 249 249 251 250 245 241 239 239 237 238 240 243 241 237 232 226 220 220 217 204 192 190 196
34 24 16 8 3 1 360 357 353 350 347 344 341 338 336 333 333 332 328 324 321 317 314 311 308 305 303 301 297 295 295 294 293 293 289 281 270 260 255 255 255 256 257 257 257 258 258 256 257 257 257 257 256 254 252 251 249 246 246 247 248 247 247 249 251 249 242 238 238 238 237 238 238 239 237 236 232 222 209 200 197 189 181 181 190
18 11 5 1 358 358 357 354 349 345 343 340 338 336 334 333 333 333 329 324 322 320 318 315 311 308 305 303 301 299 298 297 296 295 293 288 279 270 264 261 260 259 259 259 258 258 258 257 256 256 256 257 256 255 253 250 248 246 245 245 243 241 242 247 247 242 236 234 236 235 236 236 235 235 233 230 229 222 212 206 200 189 184 189 187
4 357 354 353 352 352 350 347 345 342 339 338 336 334 333 332 332 332 329 324 321 319 318 314 311 310 307 304 302 300 299 300 299 296 296 292 283 275 270 266 264 263 262 262 262 260 259 258 257 255 255 256 255 255 255 252 249 249 247 242 236 237 243 246 242 235 231 232 232 231 232 233 231 232 232 227 225 224 221 217 207 193 188 191 182
353 348 346 347 346 345 344 343 343 341 338 336 335 333 333 332 332 331 329 326 322 319 318 315 311 311 309 307 305 301 300 302 302 300 299 295 288 280 271 266 265 267 267 267 266 266 263 260 259 257 256 257 256 254 254 251 248 249 245 235 232 241 248 245 237 233 233 234 233 231 231 230 227 226 226 223 222 222 222 220 213 205 199 192 184
347 344 342 342 340 341 342 342 341 340 338 335 333 333 333 332 330 329 327 326 323 321 320 318 314 313 313 311 309 307 306 306 306 306 303 299 294 285 273 267 266 268 271 270 269 269 269 267 265 263 261 260 258 255 253 251 249 247 243 239 244 251 251 241 234 234 234 233 230 228 225 223 220 220 220 219 218 218 217 217 217 216 211 202 194
342 339 337 338 339 340 341 341 340 339 338 337 333 331 333 332 329 328 326 324 322 319 318 318 315 313 314 313 311 311 312 311 311 311 308 304 299 290 280 275 270 267 268 270 269 269 270 270 269 268 266 264 261 257 255 252 249 247 246 248 252 252 245 238 235 233 230 226 224 221 218 215 213 213 214 214 214 215 215 214 215 217 217 214 210
336 332 334 337 340 341 340 339 338 337 337 336 332 329 330 331 329 328 326 322 319 315 314 316 314 310 311 312 311 312 313 313 312 312 310 307 301 294 288 284 278 268 264 267 270 272 274 274 273 273 271 268 264 261 260 257 252 248 247 248 248 244 239 236 233 229 225 221 216 214 213 212 209 208 209 210 211 212 212 211 212 213 214 215 215
329 329 334 338 339 339 338 336 336 335 335 334 329 326 328 329 327 325 324 321 317 313 312 313 311 307 307 309 310 311 312 312 312 311 310 307 303 298 293 288 285 277 268 267 270 272 273 274 275 275 275 271 266 262 261 259 255 251 248 247 245 240 235 231 228 224 220 216 212 210 210 210 209 208 209 210 210 210 208 206 206 208 208 208 207
325 328 333 336 338 337 335 333 333 333 332 330 325 323 324 324 320 318 317 315 311 308 308 308 306 303 302 303 306 308 310 310 309 309 309 307 305 302 297 291 288 283 276 273 274 275 275 274 274 275 276 275 269 262 256 252 253 252 249 244 240 234 230 227 224 218 213 211 212 213 213 211 211 212 211 209 206 203 200 199 198 199 201 200 198
322 325 329 333 336 335 332 331 331 330 328 326 322 319 318 316 312 310 308 307 305 302 301 302 301 298 297 297 300 304 306 306 307 308 309 309 307 304 300 295 291 287 282 280 281 281 280 279 275 273 273 273 268 260 252 248 249 252 248 241 236 231 227 224 219 214 211 212 214 217 218 215 211 210 208 204 200 197 195 194 192 191 192 192 186
319 321 326 331 333 333 330 327 327 326 325 323 319 315 313 310 307 305 303 303 303 300 298 298 297 295 296 296 297 300 302 302 304 306 308 309 309 308 305 300 296 292 288 286 287 286 285 284 281 274 270 268 266 260 253 247 244 244 242 237 233 231 228 224 221 219 218 217 217 219 219 214 207 202 199 196 194 194 193 191 188 186 187 186 178
312 314 322 327 329 328 326 324 322 322 321 320 316 312 310 307 302 298 296 296 294 293 293 292 290 290 291 292 295 299 298 298 300 304 307 309 309 308 305 301 298 294 291 292 294 292 289 287 283 276 267 261 257 253 247 242 238 235 233 230 229 229 228 225 222 222 222 221 219 217 211 203 198 195 192 190 190 191 190 189 187 185 183 180 172
305 309 318 323 325 325 323 322 321 320 318 316 313 309 305 303 298 295 294 292 287 286 285 284 284 288 288 287 287 288 290 293 297 300 300 299 298 298 297 295 294 292 292 295 295 291 287 283 278 270 260 251 247 244 241 239 237 233 228 225 223 223 222 219 218 220 220 218 216 210 199 193 191 190 188 187 189 190 188 187 185 183 182 180 174
304 310 318 321 323 324 323 321 321 319 316 314 312 310 307 303 298 294 294 294 290 285 281 280 283 286 285 284 283 278 280 289 295 295 293 293 293 292 290 290 289 288 289 292 288 283 281 278 271 261 251 245 241 240 239 239 238 236 231 225 220 218 216 215 216 217 217 215 214 207 195 189 187 187 186 187 188 188 188 187 185 182 181 179 173
302 307 313 316 319 320 319 317 316 314 312 310 308 308 308 307 303 296 293 295 294 289 283 282 284 283 279 280 284 282 282 288 293 293 293 294 294 293 290 288 286 285 286 285 278 272 270 270 267 260 251 246 244 242 240 239 238 239 237 232 225 220 216 213 213 213 213 214 211 204 197 193 191 189 189 187 185 184 185 185 185 183 183 181 173
296 300 306 310 313 313 312 310 309 307 306 305 304 302 304 307 307 304 301 298 295 292 288 285 286 285 280 278 280 283 284 288 291 293 293 293 293 292 291 287 283 282 282 276 268 265 264 264 265 263 255 250 249 247 243 239 236 235 233 231 228 224 220 216 212 210 210 210 208 204 201 198 195 192 191 188 183 181 182 183 183 182 182 181 175
289 294 301 305 306 306 305 303 302 300 300 300 301 301 300 301 304 306 306 305 301 296 292 288 286 286 285 280 278 281 285 287 289 290 291 290 289 288 288 286 281 278 274 265 259 261 262 260 261 261 258 253 252 250 246 242 238 234 230 228 228 227 225 221 215 212 210 210 209 207 204 201 197 193 191 188 184 182 182 181 181 180 179 177 173
288 293 297 300 300 299 299 298 296 296 297 297 298 299 298 296 296 299 303 306 307 304 300 296 292 288 287 286 284 283 286 288 288 288 289 289 287 286 287 285 280 274 266 257 254 258 260 258 259 259 258 256 254 250 248 245 241 237 234 231 230 229 227 221 217 215 212 210 209 210 207 202 198 193 189 187 186 185 183 180 178 178 178 175 170
294 295 296 296 295 294 294 294 294 295 296 296 297 296 296 295 293 291 292 295 298 300 299 297 295 291 288 288 287 287 287 288 288 288 287 285 285 285 283 279 275 269 259 251 251 254 255 256 258 259 258 257 255 251 249 247 243 239 237 234 231 227 223 217 215 215 213 210 210 210 207 203 200 196 191 187 185 184 183 181 179 179 179 175 168
296 295 295 295 294 294 293 293 294 294 294 296 296 294 293 292 290 288 287 285 285 287 291 293 295 294 290 286 285 286 287 288 288 287 285 283 282 278 271 267 267 264 258 252 250 252 254 255 256 258 258 258 256 254 251 248 245 241 239 236 232 226 220 215 213 212 211 211 212 210 206 203 201 197 193 190 189 188 186 182 179 179 178 174 167
297 296 297 296 295 295 294 294 294 294 294 294 293 291 290 288 286 285 285 283 282 282 285 289 294 297 295 290 288 287 289 289 289 286 282 278 273 265 260 259 262 262 260 257 253 253 255 256 255 256 257 257 256 255 252 249 247 243 240 237 234 229 224 218 213 210 210 211 212 210 207 204 201 198 195 193 192 190 185 180 177 176 174 169 163
298 297 296 296 297 296 296 295 295 295 294 292 291 289 287 286 285 284 282 281 282 282 282 285 288 290 290 292 296 297 295 291 286 279 274 270 263 257 254 255 257 258 260 260 258 256 258 259 257 256 257 256 256 255 253 250 248 243 239 236 233 230 226 221 215 211 210 210 211 210 207 205 203 199 195 192 191 188 184 179 176 171 169 167 164
299 297 296 296 296 295 295 294 294 294 294 292 290 288 286 284 284 283 281 281 281 280 281 283 283 281 283 290 297 301 297 289 279 273 271 268 262 256 254 253 254 256 259 261 260 259 259 261 261 258 257 256 255 253 252 250 248 243 239 234 230 227 224 218 213 210 209 210 210 209 207 205 203 199 195 193 191 187 183 181 177 172 169 168 167
299 298 297 295 294 293 292 291 291 291 291 290 289 288 286 284 282 281 281 280 279 278 279 279 279 280 283 289 294 296 293 286 280 276 273 269 264 258 254 253 254 256 258 260 261 260 260 262 263 260 258 256 254 252 251 249 246 244 239 233 228 225 221 217 215 212 211 211 209 207 205 203 199 196 196 195 192 186 183 181 179 174 170 166 164
300 298 295 293 292 290 288 287 286 286 286 285 285 285 284 282 280 277 276 275 275 276 277 276 277 280 284 286 288 289 285 281 280 280 276 273 270 266 261 258 257 258 258 259 260 260 261 263 263 262 259 257 254 252 250 247 244 242 238 233 229 225 222 219 217 215 213 212 209 206 204 200 196 194 195 194 189 185 182 179 176 172 167 163 160
298 295 293 291 290 288 285 284 284 284 283 281 279 279 280 280 279 277 276 275 274 275 277 277 278 281 284 286 287 286 281 277 278 278 277 275 273 270 267 264 262 260 260 260 259 260 261 263 263 261 259 257 254 251 249 245 242 239 236 232 229 225 222 220 219 216 214 212 209 206 203 199 196 194 193 191 186 182 178 175 172 169 166 162 160
294 291 290 289 287 284 282 282 283 282 280 278 276 276 275 275 275 276 276 276 275 274 274 276 278 281 284 284 285 283 279 275 274 275 274 274 273 271 269 268 266 264 264 262 262 262 262 262 262 261 259 258 255 252 249 246 242 238 236 233 230 227 225 223 220 216 213 210 208 205 201 198 195 193 190 188 184 179 175 173 170 167 164 161 159
292 291 289 287 286 284 281 281 281 281 280 279 277 277 276 274 273 274 275 275 276 276 274 275 278 280 282 282 281 278 274 272 272 272 272 272 272 271 270 270 269 267 266 265 265 265 263 261 261 261 260 259 257 253 250 248 243 239 237 234 232 230 227 224 221 217 213 209 206 203 200 196 193 191 188 185 181 177 173 171 168 165 162 159 158
294 293 292 290 288 285 283 281 280 280 281 281 279 278 277 275 274 274 274 275 276 277 277 278 279 279 280 281 280 276 272 271 271 270 270 271 272 271 271 271 269 267 267 267 267 267 264 260 259 259 259 259 258 254 251 249 245 242 239 236 234 233 231 229 226 222 216 211 206 202 198 194 191 189 187 184 180 176 173 170 167 164 161 159 159
298 297 295 294 292 289 287 286 284 282 281 281 280 280 279 278 277 277 277 276 276 276 277 279 280 280 282 283 283 281 278 277 276 274 273 273 273 272 271 270 268 267 267 267 267 266 263 261 259 258 258 258 258 255 252 250 246 244 241 239 237 237 236 234 230 224 217 213 208 202 197 193 191 189 186 182 178 174 171 168 165 163 161 159 158
303 299 296 294 292 291 289 289 288 286 283 282 281 281 280 279 278 277 276 276 277 277 278 280 280 281 282 283 283 284 283 281 280 278 276 275 274 274 273 271 269 267 266 266 266 266 264 262 261 259 259 259 257 255 253 250 247 245 242 240 238 238 237 235 231 225 219 214 209 202 196 191 189 187 184 180 176 171 167 164 163 162 159 158 157
302 298 295 292 290 289 289 290 290 288 286 285 283 281 281 281 282 281 282 284 286 287 287 286 285 284 283 283 283 283 283 282 281 280 278 277 277 276 275 274 271 269 268 268 267 267 266 264 263 261 260 259 257 254 252 251 248 246 244 241 239 238 237 235 231 226 219 212 206 200 194 189 185 182 179 176 173 168 164 161 160 159 158 157 157
300 296 292 289 286 285 286 288 288 287 287 286 284 283 283 285 286 288 289 289 289 287 286 285 285 284 284 284 285 285 286 286 286 286 286 286 285 285 282 278 275 273 273 273 272 270 267 264 262 260 259 258 256 254 252 250 248 246 245 243 241 240 238 235 231 224 217 208 200 194 189 185 180 177 174 172 170 166 162 159 158 157 155 155 156
298 295 290 286 284 285 287 290 291 291 292 292 292 293 295 294 294 295 296 296 295 295 294 294 294 294 295 296 296 297 298 298 297 298 298 297 297 295 292 286 282 280 278 277 274 271 267 264 261 259 258 256 254 251 249 247 245 244 243 242 241 239 236 232 226 218 210 201 193 187 183 178 173 170 169 167 165 162 159 156 155 154 153 154 154
303 303 301 299 300 302 304 306 306 306 306 307 306 304 304 303 303 304 306 305 305 305 304 303 303 303 304 304 305 305 305 304 303 302 301 300 298 296 293 290 287 284 280 276 272 268 264 260 256 254 252 251 249 247 245 243 241 240 239 238 237 234 229 222 215 208 201 193 185 180 176 171 167 164 163 162 160 157 155 154 153 153 153 154 154
Height
737 738 738 739 739 739 740 741 741 742 743 744 744 744 745 746 747 748 748 749 750 751 751 752 752 753 754 754 754 755 755 755 756 756 757 757 757 757 757 757 757 756 757 757 757 757 756 756 755 756 758 758 758 759 759 761 761 762 763 763 763 764 764 764 762 760 761 763 763 764 765 766 766 766 767 768 768 768 769 770 770 771 772 773 774
735 735 736 737 737 738 738 739 739 740 741 741 741 742 743 743 744 745 745 746 747 748 748 748 749 749 750 750 750 750 750 750 751 751 752 752 752 752 752 752 751 751 752 751 751 752 752 751 751 752 754 754 754 755 755 756 757 758 758 759 759 760 761 761 760 759 759 759 760 761 762 762 762 763 763 763 764 765 766 767 767 768 769 770 771
733 733 734 734 735 735 736 736 737 738 738 738 739 739 740 741 742 742 742 743 743 744 744 744 745 745 745 745 745 745 745 745 746 746 747 747 746 746 746 746 746 746 746 745 746 748 748 747 747 748 750 750 750 751 751 752 753 753 754 755 755 756 757 758 757 756 755 756 757 757 758 758 758 759 759 760 761 762 763 764 764 764 765 766 768
732 732 732 733 733 733 734 734 735 735 736 736 736 737 738 738 739 739 739 740 740 740 740 741 741 741 741 741 741 740 740 740 742 743 743 742 742 742 742 742 742 741 741 741 743 744 744 743 743 745 746 746 746 747 748 748 749 749 750 750 751 752 753 753 753 753 752 752 752 753 753 754 754 755 756 757 758 758 760 761 762 762 762 763 764
732 731 731 732 731 732 732 732 733 734 734 735 735 736 737 737 737 737 737 737 737 737 737 737 738 738 738 737 737 737 737 738 739 739 739 739 739 738 738 738 738 738 738 738 739 740 740 739 740 742 743 742 742 743 744 744 745 745 745 746 747 748 748 749 749 749 748 748 748 749 749 750 751 752 753 753 754 756 757 758 759 759 759 760 761
731 731 730 731 730 731 731 731 732 733 733 734 734 735 735 735 735 735 735 735 735 735 736 736 736 736 736 736 735 735 735 736 736 735 736 736 735 735 735 735 735 734 734 734 735 736 736 736 736 738 738 738 738 739 740 740 741 741 741 742 743 743 744 744 744 745 744 743 744 745 746 746 747 748 749 750 751 752 753 755 756 756 756 757 758
730 730 729 729 729 729 730 730 731 731 732 732 733 733 734 734 734 734 734 734 734 735 735 735 735 735 734 733 733 732 732 732 732 731 731 731 732 732 731 731 731 731 731 731 731 732 732 732 733 733 734 733 733 735 735 736 737 736 737 738 739 739 739 739 740 740 740 740 740 741 741 743 744 745 746 747 749 750 751 752 752 752 753 753 754
729 729 728 728 728 728 728 728 728 729 730 730 731 731 731 732 732 732 733 733 733 734 734 734 734 733 732 731 730 730 729 728 728 727 727 727 728 727 727 727 727 727 727 727 727 727 727 728 728 728 728 729 729 730 731 732 733 732 732 734 734 734 734 735 736 736 736 736 736 737 738 739 741 742 744 746 747 747 746 747 747 747 748 749 750
728 728 728 727 727 727 727 727 727 727 728 728 728 729 729 729 729 730 730 730 730 731 731 731 731 730 730 729 728 728 727 726 726 726 726 725 725 724 724 724 724 723 723 722 723 723 722 723 723 723 723 724 724 726 726 727 728 727 728 729 729 729 730 731 731 731 731 732 733 734 735 736 737 738 739 740 740 739 740 743 744 744 745 747 748
727 727 727 727 726 726 726 726 726 726 726 726 726 726 726 726 726 726 726 726 727 727 727 727 727 726 726 725 725 724 723 722 723 723 723 723 723 722 721 721 720 720 719 719 718 718 718 718 718 719 719 719 720 720 721 722 722 722 723 724 724 725 726 726 726 726 727 728 728 729 731 731 731 731 732 732 732 735 737 739 740 742 744 746 746
726 726 726 726 726 726 725 725 725 725 725 725 725 725 725 724 724 724 723 723 723 723 723 722 722 722 721 720 719 718 717 717 718 718 719 719 719 719 718 717 717 716 715 714 713 713 713 714 714 715 715 715 715 715 716 716 717 717 718 719 719 719 720 720 720 721 721 722 723 724 724 724 724 725 727 728 730 732 734 735 736 739 741 742 742
725 725 725 725 725 725 725 725 725 725 725 724 724 724 723 723 722 722 721 721 720 720 719 718 718 718 717 716 714 713 712 713 713 713 713 714 715 715 714 713 713 712 711 710 709 709 709 709 709 710 709 709 709 710 710 711 711 712 712 713 713 713 713 714 715 715 717 717 718 718 718 719 720 720 722 724 725 727 730 732 733 734 735 736 736
725 725 725 725 724 724 725 724 724 725 724 724 723 722 722 721 720 720 719 718 718 716 715 715 714 714 714 712 710 709 708 709 709 709 708 709 710 710 710 709 709 708 707 706 705 705 704 704 704 703 703 703 704 705 705 705 706 707 707 707 707 707 707 708 709 710 711 711 711 711 711 713 714 715 716 718 719 722 726 728 729 730 731 730 730
725 725 725 724 724 723 723 723 723 723 723 722 721 721 720 719 719 718 717 716 715 714 713 712 711 711 710 709 707 705 704 705 704 704 704 704 705 706 705 704 704 703 703 703 702 701 701 700 699 697 698 699 699 700 701 701 701 701 701 701 701 701 702 703 704 706 706 706 705 705 707 708 709 709 712 713 714 716 719 721 722 724 725 726 728
725 725 724 724 723 723 722 722 722 721 721 721 720 719 719 718 717 716 715 715 713 712 710 709 708 707 707 706 704 701 700 701 700 699 698 699 700 701 700 699 698 697 697 698 698 698 697 697 695 694 694 694 695 696 696 696 696 695 695 695 695 696 697 698 700 702 702 701 700 701 702 704 705 706 708 709 710 711 713 715 717 719 722 725 727
725 725 724 724 723 722 721 720 719 719 719 719 718 717 717 716 715 714 713 712 711 710 708 707 706 705 703 703 701 697 696 698 698 696 696 696 696 696 695 694 693 692 691 692 693 692 693 693 692 691 690 690 691 691 692 692 692 690 690 690 691 691 691 693 696 698 697 696 696 697 698 700 702 703 704 706 707 709 712 715 717 719 721 724 726
724 724 724 723 722 722 721 719 718 718 717 717 716 715 715 714 713 712 711 709 708 707 706 704 703 702 700 699 698 694 692 694 695 694 694 695 695 693 692 690 688 686 686 687 687 686 687 687 687 687 686 686 686 686 688 688 687 686 685 686 686 685 686 689 692 692 692 693 694 696 697 698 699 700 701 703 705 706 709 712 714 716 718 720 722
722 722 722 722 721 721 720 719 718 718 717 716 715 714 713 712 711 710 709 707 705 704 703 701 700 699 697 696 695 692 688 689 692 692 691 692 692 691 691 688 685 683 682 681 681 680 680 681 682 683 681 680 681 682 683 684 683 682 682 682 681 680 681 684 686 686 688 690 692 693 695 695 696 697 698 699 701 702 703 705 706 709 712 714 716
721 720 720 720 720 719 719 718 717 716 716 715 714 713 712 711 710 709 708 706 704 702 702 699 696 695 695 693 692 690 687 685 688 689 688 689 689 688 688 686 683 681 680 677 675 674 674 675 676 676 675 675 676 677 678 680 679 677 678 678 677 676 677 680 681 681 684 685 686 688 690 690 692 694 694 695 696 697 699 700 701 703 705 707 711
719 719 718 718 718 717 717 716 715 714 714 713 712 711 710 709 708 707 705 704 702 700 699 698 694 692 691 690 688 687 685 683 684 685 685 685 685 684 684 683 680 679 678 675 672 670 670 670 670 671 671 672 673 673 674 675 674 673 674 674 672 672 674 676 677 677 678 679 680 682 683 685 687 688 690 692 692 694 696 698 699 699 700 703 705
718 718 717 716 716 715 715 714 713 712 711 710 709 708 707 706 705 704 703 701 699 697 696 695 692 688 687 687 685 683 683 681 681 681 681 681 681 681 680 679 678 677 675 672 670 668 667 667 667 667 668 669 670 670 670 670 670 670 669 669 669 669 671 672 673 673 674 675 676 677 678 679 682 684 686 688 689 691 693 695 696 697 698 699 700
717 717 716 715 714 713 713 712 711 710 709 707 706 705 704 704 703 701 700 698 696 695 694 693 690 686 683 683 682 680 680 679 678 678 678 678 678 677 676 675 675 675 672 668 666 665 665 664 664 664 664 664 665 666 667 666 666 666 665 665 667 667 668 668 669 670 671 672 673 674 674 675 677 679 681 683 685 688 690 692 694 696 696 697 697
716 715 714 714 713 712 712 711 710 709 707 706 704 702 701 701 700 699 698 696 694 693 691 690 689 685 681 679 678 678 678 677 676 676 675 674 674 673 673 671 671 672 669 663 662 663 663 662 661 661 660 660 660 662 663 664 663 662 661 662 663 664 665 666 667 667 668 669 670 670 671 672 673 674 677 680 682 685 687 689 691 692 694 695 695
714 713 713 712 712 711 711 710 709 708 707 705 703 701 699 698 697 696 696 694 692 690 688 688 687 683 680 676 674 674 675 674 674 674 672 671 670 669 669 668 668 668 665 661 659 660 660 659 659 658 657 656 656 656 657 659 659 658 658 658 659 660 661 662 663 663 665 666 666 665 666 668 669 670 672 675 679 682 684 686 688 689 691 692 693
712 711 711 711 710 710 709 709 708 707 706 704 703 701 699 697 695 695 694 693 692 689 686 685 684 682 679 675 671 669 670 671 671 671 669 668 666 665 665 664 664 664 662 659 658 657 655 654 654 655 654 653 652 652 652 652 654 654 655 655 655 656 656 657 659 659 660 661 662 662 662 663 665 666 669 672 675 678 680 683 685 687 688 690 691
710 709 709 709 708 708 707 706 706 705 704 703 701 700 698 697 694 693 692 692 691 688 685 683 682 680 678 674 670 667 666 667 668 667 666 664 662 662 661 660 661 661 659 657 655 654 652 651 650 650 650 650 650 649 647 647 648 650 651 651 651 651 652 653 654 654 655 656 658 660 660 661 662 664 666 669 671 673 676 679 682 684 686 687 689
708 707 707 706 706 705 704 703 703 702 701 699 698 697 696 695 693 691 690 690 688 686 683 681 679 678 675 672 669 666 663 663 663 663 662 661 659 658 658 657 657 657 655 654 652 650 649 648 646 645 645 646 646 645 644 643 643 643 644 646 646 646 647 648 649 650 651 652 653 655 657 660 661 662 663 665 667 670 672 675 678 681 683 685 686
707 706 706 705 704 704 703 702 700 699 697 696 695 693 692 692 690 688 687 688 687 684 682 679 677 676 675 671 668 665 661 659 660 660 659 658 657 656 655 654 653 653 652 651 649 647 646 644 643 642 641 641 641 641 641 640 638 636 637 639 641 642 643 644 646 646 647 648 650 652 654 656 658 660 661 663 664 667 669 672 675 678 681 682 683
705 705 704 704 703 702 701 700 698 696 694 693 691 690 689 688 687 684 682 684 685 682 680 676 674 674 673 669 668 666 659 654 656 658 657 656 655 654 652 652 651 650 650 649 647 645 643 642 640 639 638 637 637 637 637 638 637 634 632 632 634 636 639 640 641 642 644 646 648 649 650 653 655 657 659 661 663 664 666 669 672 675 679 680 680
703 702 702 701 700 699 697 696 695 693 692 690 687 685 683 683 683 680 677 677 679 678 676 672 670 671 670 666 665 664 658 652 653 656 654 653 652 651 650 649 649 648 648 648 646 643 641 639 638 636 636 635 633 632 634 636 637 636 633 631 630 630 632 634 636 639 642 644 644 645 647 649 652 654 655 658 660 662 664 666 668 672 675 677 677
701 700 700 699 698 697 695 694 693 691 690 689 687 683 679 676 676 676 674 672 671 671 670 668 666 667 667 663 659 658 655 652 651 652 651 650 649 647 646 645 645 646 646 646 643 640 638 637 634 633 634 632 630 629 630 631 633 634 635 634 632 629 628 628 630 634 638 641 642 643 644 646 647 649 651 653 655 658 661 663 665 668 671 673 674
699 698 698 697 696 696 694 693 691 690 689 688 687 685 681 675 669 666 667 668 667 665 663 662 661 661 662 660 656 652 650 650 649 648 647 647 645 644 643 642 642 643 644 643 639 635 635 634 631 630 631 630 628 628 628 627 627 628 630 631 630 629 628 627 627 630 633 637 639 640 640 642 643 645 647 649 651 654 657 659 661 664 668 671 672
698 696 696 695 694 692 692 690 689 688 687 686 684 683 681 677 671 663 659 658 658 658 657 656 655 654 654 654 653 649 646 646 646 645 644 643 642 641 639 638 638 639 640 639 635 631 631 631 628 627 628 627 626 626 626 624 624 623 623 623 624 625 627 628 627 627 628 631 634 636 637 639 640 642 644 646 647 649 652 653 656 660 664 667 669
696 694 694 693 691 689 688 687 686 685 684 683 681 679 677 676 674 668 661 655 651 648 647 648 650 649 648 647 647 646 643 642 642 641 640 639 638 638 636 634 633 634 634 633 630 627 627 626 623 623 623 623 622 622 622 621 621 621 619 619 619 620 623 625 626 625 626 628 630 632 634 636 637 638 640 643 644 646 648 649 651 655 659 662 665
693 692 691 690 689 686 685 684 683 682 680 679 678 676 674 672 671 668 665 660 654 647 642 640 642 644 643 641 641 641 639 638 637 636 636 635 635 635 633 630 628 628 628 627 625 623 622 620 619 619 619 619 618 618 617 617 617 617 616 616 616 616 617 619 621 623 624 625 626 627 630 632 633 634 636 638 640 642 644 645 647 650 654 658 660
690 689 688 687 686 683 682 681 680 679 677 676 674 673 670 669 667 664 662 659 656 650 642 636 634 637 637 636 636 636 635 634 632 631 631 631 631 631 629 626 624 623 622 621 621 619 617 616 615 615 615 614 614 614 613 612 612 613 613 613 613 612 612 612 614 617 620 621 622 623 625 627 629 631 633 635 635 636 638 640 643 646 650 654 657
688 686 685 684 683 681 679 677 676 676 674 673 671 669 666 664 662 661 658 655 652 649 643 636 632 630 628 628 631 632 630 629 628 627 626 626 627 627 625 622 620 619 617 616 617 615 613 612 611 611 610 610 610 609 609 608 608 608 609 609 609 609 608 608 609 611 614 616 618 619 620 622 624 626 629 631 633 634 636 638 640 644 647 650 654
685 683 683 681 680 678 676 674 673 672 671 669 667 666 663 661 658 657 654 651 648 645 641 637 634 629 624 623 626 628 626 624 623 621 620 621 621 620 619 618 617 615 612 611 612 611 609 607 607 607 606 606 606 606 605 604 604 604 604 605 605 605 605 606 606 607 608 611 613 615 616 618 620 622 624 626 629 631 633 635 637 640 643 646 650
682 680 680 679 677 675 674 671 670 669 668 666 664 662 660 657 655 653 651 648 645 642 638 635 631 627 623 622 623 624 622 620 618 616 616 615 615 615 614 613 612 610 608 607 607 607 605 603 603 602 602 601 602 602 601 601 600 600 600 600 600 601 601 602 603 603 604 606 607 610 612 614 616 618 620 622 624 627 630 632 633 634 637 640 645
679 677 677 676 674 673 671 669 667 666 664 662 661 659 657 654 651 649 647 644 641 637 635 632 627 622 621 622 622 622 620 616 613 612 612 610 610 609 609 607 606 604 603 602 602 601 600 599 598 598 597 597 597 597 597 597 596 596 596 595 595 596 596 597 598 599 599 600 602 604 606 608 611 615 617 619 621 623 625 628 630 631 633 636 641
676 675 673 673 671 670 668 666 664 663 661 659 657 656 654 651 648 645 642 640 636 633 630 627 622 619 619 620 620 620 618 613 609 608 607 606 605 604 603 602 600 599 598 597 596 596 596 595 594 593 592 592 593 593 593 593 592 592 591 591 591 591 591 592 593 594 595 596 597 599 601 603 605 609 612 615 618 620 623 625 628 630 632 634 639
674 672 670 669 669 667 664 662 660 659 657 655 653 651 649 646 644 641 638 634 631 629 625 621 617 615 615 616 616 616 614 609 605 604 602 601 600 599 597 596 595 594 592 591 591 591 591 590 589 588 588 587 588 588 589 588 588 588 587 586 586 586 586 587 588 589 590 591 593 594 596 599 601 603 607 611 614 616 618 622 625 627 629 632 636
670 669 667 665 664 662 660 657 656 654 652 650 647 646 644 642 639 636 633 629 627 624 621 617 613 611 611 611 611 611 609 605 602 600 597 596 595 593 592 591 590 589 588 587 586 586 586 584 583 583 582 582 583 584 584 584 583 583 582 582 581 582 582 582 583 585 586 588 589 591 593 595 597 600 603 607 611 613 615 618 621 623 626 629 634
666 664 662 661 659 657 655 653 652 649 647 645 643 640 639 637 634 632 629 626 623 620 617 614 610 608 606 605 606 605 603 600 598 595 593 591 590 588 587 586 585 584 583 582 581 581 581 579 578 578 577 577 578 579 579 579 579 578 578 577 577 577 577 578 579 580 582 584 585 587 589 591 594 597 600 603 606 609 612 614 617 620 623 627 632
662 660 658 656 654 652 651 649 648 646 644 642 639 637 635 633 631 628 625 622 619 616 613 611 608 605 603 601 600 599 597 595 593 591 589 587 585 583 582 581 580 579 578 577 577 577 576 574 573 573 572 572 573 574 574 574 574 573 572 572 572 572 572 573 575 576 578 579 581 583 585 588 590 593 596 599 602 605 608 611 613 616 620 624 628
658 656 655 653 651 649 647 646 645 643 641 639 636 633 631 629 627 624 621 618 615 613 610 607 605 603 600 598 596 595 593 592 589 587 585 583 581 579 578 577 576 575 573 573 572 572 571 570 569 568 568 568 568 569 569 569 568 568 567 567 567 567 569 570 572 573 574 576 578 581 583 586 588 591 594 597 600 602 605 608 611 614 618 622 627
656 654 653 651 649 647 646 644 642 640 638 636 633 630 627 625 623 620 617 614 612 609 606 604 602 600 598 596 594 592 590 588 586 584 581 579 577 575 574 573 571 570 569 568 567 567 566 566 565 564 564 564 563 564 564 564 563 563 563 563 563 564 565 567 568 570 571 573 575 577 580 583 587 590 594 597 600 601 603 606 610 613 617 622 627
654 652 650 649 647 645 643 642 640 638 635 633 631 628 625 622 619 616 613 611 608 606 604 601 599 597 595 593 591 589 587 585 582 580 578 575 573 572 570 569 568 567 565 564 563 562 562 561 561 560 560 559 559 559 559 559 559 559 559 559 560 560 562 563 565 566 567 570 572 574 577 580 584 588 592 596 599 601 602 605 608 612 617 622 627
651 650 648 647 645 643 641 639 638 635 633 631 628 625 622 619 616 614 611 608 606 604 601 599 597 594 592 590 588 585 584 582 579 577 575 573 571 569 567 566 564 563 562 561 560 558 557 557 556 556 556 556 556 555 555 555 555 555 555 556 556 557 559 560 562 563 565 567 569 572 575 578 582 586 590 594 598 601 602 604 608 611 616 622 627
649 648 646 644 642 641 639 637 635 633 631 628 626 623 620 618 615 612 609 607 604 601 599 597 595 593 590 588 586 583 581 579 577 575 573 571 569 567 565 563 561 560 559 558 557 556 555 553 553 553 553 553 552 552 552 551 551 551 552 552 553 554 555 557 559 561 563 565 568 570 573 576 580 584 589 593 597 600 603 606 609 613 617 622 626
648 646 644 643 641 639 637 635 634 632 630 628 626 623 621 618 615 612 609 606 604 601 599 597 595 592 590 587 585 583 580 578 576 574 572 570 568 565 563 561 559 558 557 556 555 554 553 551 550 550 550 549 549 549 549 548 548 548 548 549 550 551 553 555 557 559 562 564 567 570 572 574 578 582 586 591 595 599 603 606 611 615 620 624 627